GEFSCGP_500_meanwind_204.txt.gz
Wind_Speed
14 15 14 13 14 14 14 14 15 16 15 16 16 15 13 13 14 14 14 15 14 13 13 13 13 13 12 12 12 11 11 11 11 10 9 9 9 9 9 9 8 8 7 6
15 15 14 15 15 15 15 16 16 16 16 16 17 16 14 14 15 14 14 14 14 14 13 13 13 13 13 12 12 13 12 12 11 10 9 9 9 10 9 8 8 8 7 7
16 15 15 16 16 17 16 17 17 17 17 17 17 17 16 15 15 15 14 14 14 14 14 14 14 13 12 12 12 13 13 11 11 10 10 10 10 9 9 8 7 6 6 6
17 16 17 17 17 18 18 17 17 18 17 16 17 18 17 16 16 16 16 15 14 14 14 14 14 13 12 12 12 12 11 10 10 10 10 10 9 9 8 8 8 6 5 6
18 18 19 19 18 18 18 17 18 17 17 17 17 19 18 17 16 17 16 16 15 15 15 15 14 13 12 12 12 12 11 11 10 10 10 10 9 9 8 8 7 7 6 6
19 19 20 19 19 19 19 18 17 17 17 18 17 19 19 17 17 17 17 16 15 15 15 15 14 13 12 12 12 12 11 11 11 10 9 9 9 8 8 8 7 7 7 6
20 20 20 20 20 20 19 18 17 17 17 18 18 20 20 17 18 17 17 16 15 15 15 14 14 14 13 12 12 11 11 10 10 9 8 8 8 7 7 7 7 7 7 6
21 21 20 20 20 20 19 19 18 17 18 20 20 20 19 18 18 17 17 16 15 15 14 14 14 13 13 12 12 11 11 10 10 9 8 8 7 6 6 5 6 6 6 7
21 22 20 21 21 20 20 20 19 19 19 20 21 21 20 18 17 17 17 17 16 15 15 14 14 13 12 12 12 11 11 10 10 9 9 8 8 7 7 6 6 6 6 6
22 23 21 22 21 21 21 20 20 20 20 20 20 21 20 17 18 18 17 17 16 16 15 15 13 12 12 12 12 11 11 11 10 10 10 10 9 8 8 7 7 7 6 7
23 24 22 22 22 21 21 21 21 21 21 20 20 21 20 19 19 20 18 17 16 16 15 15 14 13 12 12 12 12 11 11 10 10 10 10 10 9 8 8 7 7 7 8
23 24 23 22 21 21 22 22 23 23 22 22 21 22 20 19 20 21 19 18 17 16 15 15 14 13 12 12 12 11 11 11 11 10 10 10 10 9 9 9 8 8 7 8
23 24 24 23 23 22 23 24 24 24 24 23 23 22 20 19 20 20 19 18 17 16 15 15 14 13 12 12 12 11 10 11 10 10 10 9 9 9 9 9 9 9 9 8
25 25 25 25 24 24 24 24 25 25 26 25 24 23 22 20 21 20 19 18 18 17 16 15 14 14 13 12 11 11 11 11 10 10 10 10 10 10 9 9 9 9 9 9
26 26 25 25 25 26 25 25 25 26 26 27 26 25 24 22 21 20 20 19 18 17 16 15 15 15 14 12 11 10 10 10 10 9 9 10 9 9 9 9 8 9 9 9
26 26 26 25 25 26 26 26 27 27 27 27 27 25 23 23 23 23 22 20 19 18 17 16 16 16 14 13 12 11 10 10 10 9 9 10 10 10 9 9 9 9 10 10
26 25 26 25 25 27 27 25 27 26 26 27 26 25 24 24 23 23 23 22 20 19 18 18 17 17 16 14 13 12 11 11 11 10 10 10 10 10 10 10 10 10 10 10
24 24 25 25 25 27 24 24 25 26 25 26 26 25 25 24 24 23 23 22 21 20 19 18 18 17 16 15 14 13 12 12 12 12 11 11 11 11 11 11 11 11 11 11
23 24 24 24 25 26 23 23 24 25 25 25 25 24 24 24 25 24 23 23 22 22 21 20 19 18 17 16 15 14 14 13 13 12 12 12 12 12 12 12 12 12 12 12
24 23 24 25 25 25 22 22 22 24 25 24 25 24 23 23 24 23 22 23 23 23 22 21 20 19 18 17 16 15 15 14 14 14 13 13 13 13 12 12 13 13 13 13
24 24 24 25 25 25 21 21 23 23 23 23 24 24 24 23 24 22 22 23 23 24 23 22 20 20 19 18 17 17 16 16 15 15 14 14 14 14 14 13 13 13 14 14
25 24 24 25 25 24 21 22 23 23 22 23 23 24 25 24 24 24 24 23 23 24 24 23 21 20 20 19 18 17 17 17 16 16 15 15 15 15 15 15 14 14 14 15
25 25 25 26 25 25 24 23 23 23 23 24 24 24 25 25 24 24 24 24 24 24 24 24 23 22 21 20 19 18 17 17 17 16 16 16 16 16 16 16 15 15 15 15
26 26 25 26 25 26 26 24 24 25 25 26 26 25 26 25 24 24 24 25 25 25 24 24 24 23 22 22 21 20 19 18 18 18 18 17 17 17 17 16 16 16 17 17
27 27 27 26 26 27 27 27 26 27 27 27 27 27 26 25 25 25 26 26 26 25 25 25 25 24 23 24 23 22 20 20 20 19 19 18 17 17 17 17 17 17 17 17
27 27 27 27 27 28 27 28 29 27 27 28 28 28 27 26 26 26 27 27 26 26 26 26 26 26 25 25 25 24 22 22 21 20 20 19 19 18 18 18 18 18 18 18

GEFSCGP_500_meanwind_210.txt.gz
Wind_Speed
14 13 13 14 14 14 13 13 12 12 11 11 11 11 10 10 11 10 10 10 10 11 11 10 10 10 10 10 10 9 9 9 8 7 7 7 7 6 6 6 6 6 6 6
14 14 13 14 14 15 15 14 13 13 12 12 12 11 11 10 10 10 10 10 10 10 11 11 11 10 10 10 9 9 9 9 8 7 7 7 6 6 6 6 6 6 6 6
15 14 14 14 15 15 15 15 15 15 14 14 14 12 11 11 10 10 11 10 10 10 10 11 11 10 10 10 9 10 9 9 9 8 7 7 6 6 6 6 6 6 6 6
14 15 15 15 15 15 15 15 15 16 15 15 15 14 12 12 11 11 11 11 11 10 11 11 11 10 10 10 10 10 10 9 8 8 7 7 7 7 6 6 5 5 6 6
14 15 16 16 16 16 16 16 16 17 17 17 16 16 13 12 12 11 12 12 11 11 11 12 11 11 10 10 10 10 10 9 8 7 7 7 7 7 7 6 6 6 6 6
15 16 16 16 17 17 18 18 18 18 18 18 17 17 14 13 12 12 12 12 12 12 11 11 11 10 10 10 10 10 9 8 8 7 7 7 7 7 6 7 7 7 7 7
16 17 17 17 18 18 19 19 19 20 19 19 18 17 15 14 13 13 12 12 11 11 11 11 10 10 11 10 9 9 9 8 8 8 7 7 6 6 6 6 7 7 7 7
18 17 18 18 18 19 18 19 19 20 20 19 18 18 15 15 14 13 12 12 12 11 11 11 11 11 11 10 10 9 9 8 7 7 8 8 7 6 6 6 6 7 7 8
19 18 18 19 18 19 19 19 19 20 20 20 19 17 16 16 15 13 13 12 12 11 11 11 10 11 11 10 10 10 9 9 8 8 7 8 8 7 7 7 6 6 7 7
19 19 18 19 19 19 19 19 19 20 21 21 20 18 16 16 16 14 14 14 13 12 11 11 11 11 11 10 10 9 9 9 8 8 8 8 7 7 7 7 8 8 7 7
19 19 18 19 19 19 19 20 20 21 21 21 21 19 17 17 16 15 14 14 14 13 12 12 11 11 11 10 10 10 9 9 9 10 10 9 8 7 7 8 8 8 7 7
20 20 19 20 20 20 20 20 21 22 21 22 23 21 18 18 17 16 15 15 15 15 13 13 12 12 11 10 10 10 10 10 10 9 10 9 9 8 8 8 8 8 8 8
21 21 21 21 21 21 21 20 21 22 23 23 23 21 19 19 17 16 16 15 14 15 14 14 13 13 12 11 11 10 10 10 10 9 9 9 9 8 8 8 8 8 9 9
23 22 22 22 21 22 22 22 22 23 24 24 23 22 20 20 18 17 17 17 16 16 16 15 14 13 12 12 11 11 11 10 10 10 9 9 8 8 8 8 8 9 9 9
23 23 23 23 22 23 23 23 22 23 23 24 23 23 22 20 19 18 18 18 18 17 17 16 15 14 13 12 12 11 12 11 11 11 10 9 8 8 8 8 8 8 9 10
24 24 24 24 23 24 24 24 23 22 22 23 24 24 23 21 20 19 19 19 20 19 18 18 16 14 14 13 12 12 12 12 11 11 11 10 9 9 9 9 9 9 9 10
23 23 23 23 23 25 25 23 23 23 22 22 24 24 24 22 21 20 20 20 20 20 20 19 17 15 15 14 14 13 13 13 12 12 12 12 11 11 10 10 10 10 10 10
22 22 22 22 22 25 23 22 22 23 22 21 23 23 23 23 23 22 21 21 20 20 21 21 20 18 16 16 15 14 14 14 13 13 13 13 12 12 12 11 11 10 11 11
22 23 24 23 23 24 22 21 22 22 22 22 23 23 23 23 24 23 21 21 21 19 19 20 21 19 18 18 16 16 15 15 14 14 14 14 13 13 13 12 12 11 11 12
23 24 24 25 25 23 22 22 22 22 23 22 22 22 22 23 24 22 22 21 21 21 20 20 20 20 20 19 18 17 17 16 15 15 15 15 15 15 14 13 13 12 12 12
24 24 25 25 25 24 22 23 23 24 22 21 22 21 21 22 23 23 23 23 22 22 21 21 21 21 21 20 19 19 18 18 17 16 15 15 16 15 15 14 14 14 13 13
24 25 26 26 26 24 23 24 24 24 23 22 22 22 22 21 21 22 23 24 23 23 22 22 22 22 22 22 21 20 19 19 19 17 16 16 16 16 16 15 15 15 15 15
26 26 27 27 26 24 24 25 25 25 25 25 24 22 22 22 22 22 23 23 24 23 23 23 23 23 23 22 22 21 21 21 20 19 18 18 17 17 17 17 17 16 16 16
27 27 27 27 26 26 25 25 25 26 25 25 25 25 23 23 23 23 22 23 23 23 23 23 23 24 24 24 23 22 22 23 22 21 20 19 19 19 19 18 18 18 18 17
26 26 26 27 26 26 26 26 25 25 25 25 25 25 24 24 23 23 23 23 23 23 24 24 23 24 25 25 25 24 23 24 23 22 21 20 20 20 20 20 20 19 19 18
26 26 26 26 26 27 27 27 27 26 25 26 26 25 24 23 23 23 24 24 24 23 23 24 24 24 25 25 25 26 25 25 24 23 23 22 21 21 21 21 21 20 20 19

GEFSCGP_500_meanwind_216.txt.gz
Wind_Speed
15 14 14 14 14 14 14 13 13 13 13 13 12 12 11 11 11 11 11 11 11 10 10 10 9 9 10 9 9 9 9 9 8 8 8 7 6 6 6 5 6 6 5 5
15 15 15 15 15 14 14 14 14 14 14 14 13 12 12 12 11 11 11 11 11 10 10 10 9 9 10 9 9 9 9 9 8 7 7 7 6 5 5 5 5 6 5 5
16 16 15 15 14 14 14 15 15 15 14 14 15 14 13 13 13 12 12 12 11 11 10 10 10 9 9 9 9 9 9 9 8 7 7 7 6 6 5 5 5 5 6 6
16 16 16 16 16 15 15 15 16 15 15 16 16 15 13 13 13 13 12 12 12 12 11 10 10 9 9 9 10 10 9 9 8 7 7 7 6 6 6 6 6 6 6 6
16 16 16 16 16 16 16 16 17 17 17 17 17 17 14 14 14 14 13 13 13 13 12 11 10 10 9 9 10 10 9 9 8 7 7 7 7 6 6 7 6 6 7 7
16 17 17 17 17 17 16 17 18 18 18 18 17 17 15 15 15 15 14 14 13 13 13 12 11 11 10 10 10 10 10 9 8 8 7 7 7 6 6 7 7 7 7 8
16 17 17 18 18 17 17 18 19 19 19 18 17 17 16 16 15 15 15 14 14 13 13 13 12 12 11 11 10 10 10 9 9 8 8 8 7 7 7 7 7 7 7 7
17 17 18 18 18 18 18 19 19 19 19 18 17 16 15 16 16 16 16 15 15 14 14 14 13 12 12 12 11 10 11 10 9 9 9 8 8 8 7 7 8 8 8 8
18 18 18 18 18 18 18 18 19 19 19 18 17 16 15 15 16 16 16 16 15 15 14 14 13 13 13 12 11 10 10 10 10 9 9 9 9 8 8 8 8 8 8 8
19 19 19 19 19 19 19 18 18 19 19 19 17 16 15 16 17 17 17 17 16 15 15 14 14 14 13 13 12 11 10 10 10 10 9 10 9 9 8 8 8 8 7 8
20 19 19 19 19 19 19 19 19 20 20 20 19 17 16 17 17 18 18 17 17 16 15 16 15 15 14 14 13 12 11 11 10 10 10 9 9 10 9 9 8 8 8 8
20 20 20 19 19 20 20 20 20 21 21 21 21 18 18 18 18 19 19 19 18 17 16 16 16 16 15 15 14 13 12 12 11 10 10 10 10 10 10 9 9 9 9 8
21 21 21 21 20 20 21 21 22 22 22 22 22 19 18 19 19 20 20 19 19 18 17 17 16 17 16 15 15 14 13 13 12 11 11 11 10 10 10 10 9 9 9 9
22 22 22 22 21 22 22 23 23 23 23 23 22 20 19 19 20 20 20 20 20 19 18 18 17 18 17 16 16 15 15 13 12 12 12 11 11 11 10 10 10 10 10 9
23 23 23 23 23 23 24 24 24 24 24 24 23 22 21 20 21 21 21 21 21 20 19 19 18 19 17 17 17 17 16 14 13 13 12 12 12 12 11 11 11 10 10 10
24 25 24 24 24 25 25 24 24 24 25 25 25 23 22 22 22 22 21 21 21 20 20 19 19 19 19 18 17 17 17 16 15 14 13 14 13 13 12 12 11 11 11 11
25 25 25 25 24 26 25 23 24 24 24 25 25 24 23 23 24 23 23 22 21 20 20 20 20 19 19 18 18 17 17 17 16 15 15 15 15 14 14 13 12 12 12 12
24 25 26 26 25 26 23 22 23 24 24 24 24 23 23 23 24 24 24 22 21 21 20 20 20 20 19 19 19 19 19 18 17 16 16 16 16 15 14 14 13 13 13 13
25 26 27 27 26 25 23 22 23 24 24 23 23 23 22 22 23 24 23 23 22 21 20 20 20 20 20 21 21 21 20 20 19 18 17 17 16 16 15 15 14 14 14 13
26 26 27 27 27 26 24 24 24 25 24 24 24 23 23 24 24 22 22 23 22 21 22 21 20 20 20 22 22 21 21 21 20 19 19 18 18 17 16 16 16 16 15 14
26 27 27 27 28 27 25 25 25 25 24 24 24 25 25 25 24 22 22 22 21 21 22 21 21 20 20 21 22 22 22 22 22 21 20 20 19 19 18 17 17 17 17 16
27 28 28 28 29 27 26 27 27 27 26 26 25 25 25 26 25 24 23 22 21 21 21 21 21 21 21 20 22 23 22 23 23 22 21 21 21 20 19 18 18 17 17 17
27 27 28 28 28 27 27 27 28 28 28 28 27 27 27 26 25 25 24 23 23 22 22 21 21 21 22 22 21 22 23 24 23 23 22 21 21 20 20 19 19 19 18 18
27 27 27 28 27 27 28 28 28 29 30 29 28 28 28 27 26 25 24 24 24 22 22 22 22 22 22 23 22 21 22 24 24 23 23 22 22 21 21 21 20 20 19 18
26 27 27 27 26 27 27 28 29 29 30 30 29 28 28 27 27 25 24 25 25 24 23 23 23 23 22 22 23 23 23 24 24 24 23 24 24 23 23 22 22 21 21 20
25 26 27 26 26 28 27 27 29 30 29 29 29 28 28 28 27 27 27 26 26 25 25 24 24 25 24 24 23 23 23 24 25 25 24 24 24 24 24 24 23 23 22 22

GEFSCGP_500_meanwind_222.txt.gz
Wind_Speed
13 14 14 14 13 13 13 13 13 13 12 12 12 12 12 11 11 11 10 10 9 9 10 10 9 9 9 9 8 8 8 8 8 8 9 9 9 8 8 7 7 6 6 7
14 15 15 15 14 14 13 13 13 14 13 13 13 13 13 12 12 12 11 10 9 10 10 10 10 10 10 9 9 9 9 9 9 9 8 8 8 7 7 7 7 7 7 7
15 15 15 15 15 15 14 14 14 14 14 14 14 14 14 13 13 12 12 11 10 10 10 10 10 10 10 9 9 9 9 9 9 9 8 8 7 7 7 7 8 7 7 7
15 15 15 15 15 15 15 15 14 14 14 15 14 14 14 14 13 13 13 13 12 11 11 11 10 10 10 10 10 10 10 9 9 9 8 8 7 7 6 6 7 8 8 9
15 15 15 15 15 15 15 15 15 15 15 15 15 15 14 14 14 14 14 14 13 13 12 11 11 11 11 11 11 11 10 10 9 9 8 8 8 7 7 7 7 8 8 8
15 15 15 15 15 15 15 15 16 16 16 16 15 15 15 14 14 14 14 14 14 14 13 12 12 11 12 12 11 11 11 10 10 9 8 8 8 8 8 8 8 8 8 8
16 16 16 16 16 15 16 16 16 16 16 16 15 16 15 15 14 14 14 14 14 14 13 14 13 13 12 12 12 12 11 11 11 10 9 8 8 8 8 8 8 8 9 9
16 17 17 17 17 17 16 16 16 16 16 16 16 15 15 14 15 14 14 14 14 14 14 14 14 14 13 13 13 12 12 11 11 11 10 9 9 9 9 9 9 8 8 8
17 17 17 17 17 17 16 17 17 17 17 16 16 15 14 14 15 15 14 14 15 15 15 15 15 15 14 14 14 13 13 12 12 12 11 11 10 10 10 9 9 9 9 9
17 18 18 18 18 18 17 17 17 17 17 17 16 15 15 15 15 15 16 15 16 16 16 16 16 16 16 15 15 14 14 13 13 13 13 12 11 11 11 11 10 10 9 10
19 19 19 19 18 18 18 18 18 18 18 17 17 17 16 16 15 16 16 16 17 18 17 17 17 17 17 17 16 16 15 14 14 14 13 12 12 12 12 12 11 10 9 9
20 20 20 20 19 19 19 19 19 19 19 19 18 18 17 16 17 17 18 18 18 18 19 18 18 18 18 18 18 17 16 16 15 15 14 14 13 13 12 12 12 11 10 10
21 21 21 21 21 20 20 20 20 21 21 20 20 19 18 18 18 18 19 19 19 19 19 19 19 19 18 18 18 18 18 17 17 16 16 15 14 14 13 12 12 12 11 11
22 22 22 22 22 22 22 22 22 22 22 22 21 21 20 20 20 20 20 20 20 20 20 20 20 19 19 19 19 19 19 18 18 17 17 16 16 15 14 14 13 13 12 12
22 22 23 23 23 23 23 23 23 23 23 23 22 22 22 22 22 21 21 21 21 21 21 21 21 21 20 20 20 20 20 20 19 18 18 18 17 16 16 15 14 14 14 13
22 23 23 23 24 24 24 24 24 24 24 24 24 24 23 23 23 22 21 21 22 22 22 22 21 21 21 21 21 21 21 22 21 20 19 19 19 18 18 16 15 15 14 13
23 24 24 24 24 25 25 24 25 25 25 25 25 24 24 24 24 23 22 22 23 23 23 23 22 22 22 22 22 22 22 22 21 21 21 20 20 20 19 18 17 16 15 14
24 24 25 25 25 26 25 25 25 26 25 25 25 25 25 25 25 25 24 23 24 24 24 24 23 23 23 22 23 23 23 22 22 21 21 21 20 20 20 19 18 17 16 15
25 25 26 26 27 26 25 25 25 25 25 25 25 25 25 25 25 25 25 24 24 24 24 24 24 24 24 23 23 24 23 23 22 22 21 21 22 21 21 21 20 19 17 16
25 25 26 27 27 27 26 25 25 25 25 24 25 25 24 25 25 25 25 24 24 23 23 23 23 23 24 24 23 24 24 23 23 23 22 21 22 22 22 22 21 20 19 18
24 25 26 26 27 27 27 26 25 25 25 25 25 25 24 25 26 25 25 24 24 24 24 23 23 22 23 23 23 23 23 24 23 23 23 22 22 24 23 23 22 21 20 19
25 25 25 26 26 26 26 26 26 26 26 25 25 25 25 26 26 26 26 25 24 25 25 24 23 22 23 23 23 22 23 24 24 24 23 23 22 23 24 24 23 22 22 21
24 24 25 25 26 26 26 26 26 26 26 26 26 25 26 26 26 26 26 26 26 26 26 25 24 23 23 23 23 23 22 22 23 23 23 24 24 24 25 25 24 24 23 22
24 24 24 25 25 25 25 26 26 26 27 27 27 26 26 26 26 26 26 25 25 25 25 25 24 24 23 23 24 23 23 23 23 23 24 24 24 24 25 25 25 24 24 24
22 23 24 24 24 25 24 25 25 26 26 27 27 27 26 26 25 25 25 25 25 25 25 25 24 23 23 23 23 23 23 24 24 23 24 25 26 25 25 25 26 25 26 26
21 23 24 25 24 25 25 25 25 25 25 26 26 25 25 26 26 26 25 25 25 25 24 24 23 23 23 22 22 22 23 23 24 24 24 25 27 26 26 26 27 27 27 26